• în Republica Moldova
  • Lista ţărilor
  • Pe 7 zile
  • Temperatura apei
  • Hartă satelitară
  • Meteo pe hartă
  • Widget-uri
  • user-avatar
    Intrare

    Meteo pe oră la Canberra

    Astăzi, 24 Aprilie, Luni

    Timp Temperatura Precipitaţii Vânt Presiune Umiditate
    00:00 +9°C° 0 mm 0 m/s 713 mmHg 96%
    01:00 +9°C° 0 mm 0 m/s 713 mmHg 97%
    02:00 +8°C° 0 mm 0 m/s 712 mmHg 97%
    03:00 +8°C° 0 mm 0 m/s 712 mmHg 97%
    04:00 +8°C° 0 mm 0 m/s 712 mmHg 98%
    05:00 +8°C° 0 mm 0 m/s 712 mmHg 98%
    06:00 +8°C° 0 mm 0 m/s 712 mmHg 98%
    07:00 +8°C° 0 mm 0 m/s 712 mmHg 98%
    08:00 +12°C° 0 mm 0 m/s 713 mmHg 85%
    09:00 +16°C° 0 mm 1 m/s 713 mmHg 72%
    10:00 +21°C° 0 mm 1 m/s 714 mmHg 59%
    11:00 +22°C° 0 mm 1 m/s 713 mmHg 54%
    12:00 +23°C° 0 mm 2 m/s 713 mmHg 48%
    13:00 +24°C° 0 mm 2 m/s 712 mmHg 42%
    14:00 +24°C° 0,1 mm 2 m/s 712 mmHg 43%
    15:00 +23°C° 0,1 mm 2 m/s 711 mmHg 45%
    16:00 +23°C° 0,1 mm 2 m/s 711 mmHg 46%
    17:00 +20°C° 0 mm 1 m/s 710 mmHg 58%
    18:00 +16°C° 0 mm 1 m/s 710 mmHg 69%
    19:00 +13°C° 0 mm 1 m/s 710 mmHg 81%
    20:00 +13°C° 0 mm 1 m/s 710 mmHg 81%
    21:00 +12°C° 0 mm 1 m/s 709 mmHg 82%
    22:00 +12°C° 0 mm 1 m/s 709 mmHg 82%
    23:00 +12°C° 0 mm 1 m/s 709 mmHg 81%

    Mâine, 25 Aprilie, Marţi

    Timp Temperatura Precipitaţii Vânt Presiune Umiditate
    00:00 +13°C° 0 mm 1 m/s 709 mmHg 81%
    01:00 +13°C° 0 mm 1 m/s 708 mmHg 80%
    02:00 +13°C° 0 mm 1 m/s 708 mmHg 81%
    03:00 +13°C° 0 mm 1 m/s 708 mmHg 83%
    04:00 +14°C° 0 mm 1 m/s 707 mmHg 84%
    05:00 +14°C° 0,2 mm 2 m/s 707 mmHg 85%
    06:00 +14°C° 0,2 mm 2 m/s 707 mmHg 86%
    07:00 +14°C° 0,2 mm 2 m/s 706 mmHg 86%
    08:00 +14°C° 0,3 mm 3 m/s 706 mmHg 84%
    09:00 +16°C° 0,3 mm 3 m/s 706 mmHg 82%
    10:00 +15°C° 0,3 mm 4 m/s 706 mmHg 80%
    11:00 +15°C° 1,5 mm 4 m/s 705 mmHg 85%
    12:00 +16°C° 1,5 mm 3 m/s 705 mmHg 89%
    13:00 +14°C° 1,5 mm 3 m/s 704 mmHg 93%
    14:00 +14°C° 0,2 mm 3 m/s 704 mmHg 93%
    15:00 +16°C° 0,2 mm 3 m/s 703 mmHg 92%
    16:00 +16°C° 0,2 mm 3 m/s 703 mmHg 91%
    17:00 +16°C° 0,1 mm 3 m/s 703 mmHg 91%
    18:00 +14°C° 0,1 mm 3 m/s 703 mmHg 91%
    19:00 +14°C° 0,1 mm 3 m/s 703 mmHg 91%
    20:00 +14°C° 0 mm 3 m/s 703 mmHg 92%
    21:00 +13°C° 0 mm 3 m/s 703 mmHg 92%
    22:00 +13°C° 0 mm 3 m/s 703 mmHg 93%
    23:00 +12°C° 0 mm 3 m/s 703 mmHg 92%

    Poimâine, 26 Aprilie, Miercuri

    Timp Temperatura Precipitaţii Vânt Presiune Umiditate
    00:00 +12°C° 0 mm 3 m/s 702 mmHg 92%
    01:00 +12°C° 0 mm 3 m/s 702 mmHg 91%
    02:00 +11°C° 0 mm 3 m/s 702 mmHg 92%
    03:00 +11°C° 0 mm 3 m/s 701 mmHg 93%
    04:00 +10°C° 0 mm 2 m/s 701 mmHg 94%
    05:00 +10°C° 0 mm 3 m/s 701 mmHg 93%
    06:00 +10°C° 0 mm 3 m/s 701 mmHg 92%
    07:00 +10°C° 0 mm 3 m/s 700 mmHg 91%
    08:00 +11°C° 0,6 mm 4 m/s 700 mmHg 88%
    09:00 +11°C° 0,6 mm 4 m/s 700 mmHg 85%
    10:00 +12°C° 0,6 mm 5 m/s 700 mmHg 82%
    11:00 +10°C° 0,7 mm 5 m/s 700 mmHg 81%
    12:00 +9°C° 0,7 mm 5 m/s 700 mmHg 80%
    13:00 +10°C° 0,7 mm 4 m/s 700 mmHg 80%
    14:00 +8°C° 0,5 mm 4 m/s 700 mmHg 83%
    15:00 +7°C° 0,5 mm 4 m/s 701 mmHg 87%
    16:00 +7°C° 0,5 mm 4 m/s 701 mmHg 90%
    17:00 +6°C° 0 mm 4 m/s 702 mmHg 90%
    18:00 +7°C° 0 mm 3 m/s 702 mmHg 90%
    19:00 +7°C° 0 mm 3 m/s 703 mmHg 90%
    20:00 +5°C° 0 mm 3 m/s 704 mmHg 88%
    21:00 +5°C° 0 mm 3 m/s 704 mmHg 86%
    22:00 +4°C° 0 mm 3 m/s 705 mmHg 84%
    23:00 +4°C° 0 mm 3 m/s 705 mmHg 83%

    27 Aprilie, Joi

    Timp Temperatura Precipitaţii Vânt Presiune Umiditate
    00:00 +4°C° 0 mm 3 m/s 705 mmHg 82%
    01:00 +5°C° 0 mm 2 m/s 706 mmHg 81%
    02:00 +4°C° 0 mm 2 m/s 706 mmHg 82%
    03:00 +4°C° 0 mm 2 m/s 706 mmHg 83%
    04:00 +4°C° 0 mm 2 m/s 706 mmHg 84%
    05:00 +3°C° 0 mm 2 m/s 706 mmHg 85%
    06:00 +3°C° 0 mm 2 m/s 707 mmHg 87%
    07:00 +2°C° 0 mm 2 m/s 707 mmHg 88%
    08:00 +5°C° 0 mm 2 m/s 708 mmHg 78%
    09:00 +7°C° 0 mm 2 m/s 708 mmHg 67%
    10:00 +9°C° 0 mm 3 m/s 709 mmHg 57%
    11:00 +10°C° 0 mm 3 m/s 709 mmHg 52%
    12:00 +11°C° 0 mm 3 m/s 709 mmHg 46%
    13:00 +12°C° 0 mm 3 m/s 709 mmHg 41%
    14:00 +12°C° 0 mm 3 m/s 709 mmHg 43%
    15:00 +11°C° 0 mm 3 m/s 709 mmHg 45%
    16:00 +12°C° 0 mm 2 m/s 709 mmHg 48%
    17:00 +9°C° 0 mm 2 m/s 710 mmHg 55%
    18:00 +7°C° 0 mm 2 m/s 710 mmHg 61%
    19:00 +5°C° 0 mm 2 m/s 710 mmHg 68%
    20:00 +5°C° 0 mm 2 m/s 711 mmHg 70%
    21:00 +4°C° 0 mm 2 m/s 711 mmHg 72%
    22:00 +4°C° 0 mm 2 m/s 712 mmHg 74%
    23:00 +4°C° 0 mm 2 m/s 712 mmHg 75%

    28 Aprilie, Vineri

    Timp Temperatura Precipitaţii Vânt Presiune Umiditate
    00:00 +3°C° 0 mm 2 m/s 712 mmHg 77%
    01:00 +3°C° 0 mm 2 m/s 711 mmHg 79%
    02:00 +3°C° 0 mm 2 m/s 711 mmHg 80%
    03:00 +4°C° 0 mm 1 m/s 711 mmHg 80%
    04:00 +4°C° 0 mm 1 m/s 711 mmHg 81%
    05:00 +4°C° 0 mm 1 m/s 712 mmHg 82%
    06:00 +4°C° 0 mm 1 m/s 712 mmHg 82%
    07:00 +4°C° 0 mm 1 m/s 712 mmHg 82%
    08:00 +7°C° 0 mm 1 m/s 713 mmHg 71%
    09:00 +11°C° 0 mm 1 m/s 713 mmHg 59%
    10:00 +14°C° 0 mm 1 m/s 714 mmHg 47%
    11:00 +15°C° 0 mm 1 m/s 713 mmHg 45%
    12:00 +18°C° 0 mm 1 m/s 713 mmHg 42%
    13:00 +19°C° 0 mm 1 m/s 712 mmHg 40%
    14:00 +17°C° 0 mm 2 m/s 712 mmHg 43%
    15:00 +17°C° 0 mm 2 m/s 711 mmHg 47%
    16:00 +16°C° 0 mm 2 m/s 711 mmHg 50%
    17:00 +14°C° 0 mm 2 m/s 711 mmHg 61%
    18:00 +12°C° 0 mm 2 m/s 711 mmHg 71%
    19:00 +9°C° 0 mm 2 m/s 711 mmHg 82%
    20:00 +9°C° 0 mm 2 m/s 711 mmHg 86%
    21:00 +8°C° 0 mm 2 m/s 711 mmHg 89%
    22:00 +8°C° 0 mm 2 m/s 711 mmHg 93%
    23:00 +8°C° 0 mm 2 m/s 711 mmHg 93%

    29 Aprilie, Sâmbătă

    Timp Temperatura Precipitaţii Vânt Presiune Umiditate
    00:00 +7°C° 0 mm 2 m/s 710 mmHg 94%
    01:00 +7°C° 0 mm 2 m/s 710 mmHg 94%
    02:00 +7°C° 0 mm 2 m/s 710 mmHg 94%
    03:00 +7°C° 0 mm 2 m/s 709 mmHg 94%
    04:00 +6°C° 0 mm 2 m/s 709 mmHg 94%
    05:00 +6°C° 0 mm 2 m/s 709 mmHg 94%
    06:00 +6°C° 0 mm 2 m/s 709 mmHg 94%
    07:00 +6°C° 0 mm 2 m/s 709 mmHg 94%
    08:00 +9°C° 0 mm 2 m/s 710 mmHg 84%
    09:00 +11°C° 0 mm 3 m/s 710 mmHg 75%
    10:00 +13°C° 0 mm 4 m/s 710 mmHg 65%
    11:00 +14°C° 0 mm 4 m/s 710 mmHg 62%
    12:00 +15°C° 0 mm 4 m/s 710 mmHg 58%
    13:00 +15°C° 0 mm 4 m/s 710 mmHg 54%
    14:00 +16°C° 0 mm 3 m/s 710 mmHg 52%
    15:00 +16°C° 0 mm 3 m/s 710 mmHg 50%
    16:00 +16°C° 0 mm 3 m/s 710 mmHg 47%
    17:00 +14°C° 0 mm 2 m/s 711 mmHg 56%
    18:00 +10°C° 0 mm 2 m/s 711 mmHg 64%
    19:00 +7°C° 0 mm 2 m/s 712 mmHg 73%
    20:00 +7°C° 0 mm 2 m/s 712 mmHg 77%
    21:00 +6°C° 0 mm 2 m/s 712 mmHg 81%
    22:00 +5°C° 0 mm 2 m/s 712 mmHg 85%
    23:00 +5°C° 0 mm 2 m/s 712 mmHg 87%
    Arată mai mult